Year,Month,Day,Hour,Minute,Value (Times are PST for temperature in C)
2009,06,22,00,00,15.80
2009,06,22,00,01,15.80
2009,06,22,00,02,15.80
2009,06,22,00,03,15.80
2009,06,22,00,04,15.80
2009,06,22,00,05,15.80
2009,06,22,00,06,15.80
2009,06,22,00,07,15.80
2009,06,22,00,08,15.80
2009,06,22,00,09,15.80
2009,06,22,00,10,15.70
2009,06,22,00,11,15.70
2009,06,22,00,12,15.70
2009,06,22,00,13,15.70
2009,06,22,00,14,15.70
2009,06,22,00,15,15.70
2009,06,22,00,16,15.70
2009,06,22,00,17,15.70
2009,06,22,00,18,15.70
2009,06,22,00,19,15.70
2009,06,22,00,20,15.70
2009,06,22,00,21,15.70
2009,06,22,00,22,15.70
2009,06,22,00,23,15.70
2009,06,22,00,24,15.70
2009,06,22,00,25,15.70
2009,06,22,00,26,15.70
2009,06,22,00,27,15.60
2009,06,22,00,28,15.60
2009,06,22,00,29,15.60
2009,06,22,00,30,15.60
2009,06,22,00,31,15.60
2009,06,22,00,32,15.60
2009,06,22,00,33,15.60
2009,06,22,00,34,15.60
2009,06,22,00,35,15.60
2009,06,22,00,36,15.50
2009,06,22,00,37,15.50
2009,06,22,00,38,15.60
2009,06,22,00,39,15.50
2009,06,22,00,40,15.50
2009,06,22,00,41,15.50
2009,06,22,00,42,15.40
2009,06,22,00,43,15.40
2009,06,22,00,44,15.40
2009,06,22,00,45,15.40
2009,06,22,00,46,15.30
2009,06,22,00,47,15.30
2009,06,22,00,48,15.30
2009,06,22,00,49,15.30
2009,06,22,00,50,15.40
2009,06,22,00,51,15.40
2009,06,22,00,52,15.40
2009,06,22,00,53,15.40
2009,06,22,00,54,15.40
2009,06,22,00,55,15.40
2009,06,22,00,56,15.40
2009,06,22,00,57,15.40
2009,06,22,00,58,15.40
2009,06,22,00,59,15.40
2009,06,22,01,00,15.40
2009,06,22,01,01,15.40
2009,06,22,01,02,15.40
2009,06,22,01,03,15.50
2009,06,22,01,04,15.50
2009,06,22,01,05,15.40
2009,06,22,01,06,15.50
2009,06,22,01,07,15.50
2009,06,22,01,08,15.50
2009,06,22,01,09,15.50
2009,06,22,01,10,15.50
2009,06,22,01,11,15.50
2009,06,22,01,12,15.50
2009,06,22,01,13,15.50
2009,06,22,01,14,15.50
2009,06,22,01,15,15.50
2009,06,22,01,16,15.50
2009,06,22,01,17,15.50
2009,06,22,01,18,15.50
2009,06,22,01,19,15.40
2009,06,22,01,20,15.40
2009,06,22,01,21,15.40
2009,06,22,01,22,15.40
2009,06,22,01,23,15.40
2009,06,22,01,24,15.40
2009,06,22,01,25,15.40
2009,06,22,01,26,15.40
2009,06,22,01,27,15.40
2009,06,22,01,28,15.40
2009,06,22,01,29,15.40
2009,06,22,01,30,15.30
2009,06,22,01,31,15.30
2009,06,22,01,32,15.30
2009,06,22,01,33,15.30
2009,06,22,01,34,15.30
2009,06,22,01,35,15.20
2009,06,22,01,36,15.20
2009,06,22,01,37,15.20
2009,06,22,01,38,15.10
2009,06,22,01,39,15.10
2009,06,22,01,40,15.10
2009,06,22,01,41,15.00
2009,06,22,01,42,15.00
2009,06,22,01,43,15.00
2009,06,22,01,44,15.00
2009,06,22,01,45,15.00
2009,06,22,01,46,15.00
2009,06,22,01,47,15.00
2009,06,22,01,48,15.00
2009,06,22,01,49,15.00
2009,06,22,01,50,15.00
2009,06,22,01,51,15.00
2009,06,22,01,52,15.00
2009,06,22,01,53,15.00
2009,06,22,01,54,15.00
2009,06,22,01,55,15.00
2009,06,22,01,56,15.00
2009,06,22,01,57,15.00
2009,06,22,01,58,15.00
2009,06,22,01,59,14.90
2009,06,22,02,00,14.90
2009,06,22,02,01,14.90
2009,06,22,02,02,14.80
2009,06,22,02,03,14.80
2009,06,22,02,04,14.80
2009,06,22,02,05,14.90
2009,06,22,02,06,14.80
2009,06,22,02,07,14.90
2009,06,22,02,08,14.90
2009,06,22,02,09,14.90
2009,06,22,02,10,14.90
2009,06,22,02,11,14.80
2009,06,22,02,12,14.80
2009,06,22,02,13,14.80
2009,06,22,02,14,14.80
2009,06,22,02,15,14.80
2009,06,22,02,16,14.80
2009,06,22,02,17,14.70
2009,06,22,02,18,14.70
2009,06,22,02,19,14.70
2009,06,22,02,20,14.70
2009,06,22,02,21,14.70
2009,06,22,02,22,14.70
2009,06,22,02,23,14.70
2009,06,22,02,24,14.70
2009,06,22,02,25,14.70
2009,06,22,02,26,14.70
2009,06,22,02,27,14.70
2009,06,22,02,28,14.60
2009,06,22,02,29,14.60
2009,06,22,02,30,14.60
2009,06,22,02,31,14.60
2009,06,22,02,32,14.60
2009,06,22,02,33,14.60
2009,06,22,02,34,14.50
2009,06,22,02,35,14.50
2009,06,22,02,36,14.50
2009,06,22,02,37,14.50
2009,06,22,02,38,14.40
2009,06,22,02,39,14.40
2009,06,22,02,40,14.40
2009,06,22,02,41,14.40
2009,06,22,02,42,14.40
2009,06,22,02,43,14.40
2009,06,22,02,44,14.40
2009,06,22,02,45,14.30
2009,06,22,02,46,14.30
2009,06,22,02,47,14.40
2009,06,22,02,48,14.40
2009,06,22,02,49,14.40
2009,06,22,02,50,14.30
2009,06,22,02,51,14.30
2009,06,22,02,52,14.30
2009,06,22,02,53,14.30
2009,06,22,02,54,14.30
2009,06,22,02,55,14.30
2009,06,22,02,56,14.30
2009,06,22,02,57,14.20
2009,06,22,02,58,14.20
2009,06,22,02,59,14.10
2009,06,22,03,00,14.10
2009,06,22,03,01,14.00
2009,06,22,03,02,13.90
2009,06,22,03,03,13.80
2009,06,22,03,04,13.70
2009,06,22,03,05,13.50
2009,06,22,03,06,13.40
2009,06,22,03,07,13.20
2009,06,22,03,08,13.10
2009,06,22,03,09,13.00
2009,06,22,03,10,12.90
2009,06,22,03,11,12.80
2009,06,22,03,12,12.70
2009,06,22,03,13,12.60
2009,06,22,03,14,12.50
2009,06,22,03,15,12.40
2009,06,22,03,16,12.30
2009,06,22,03,17,12.20
2009,06,22,03,18,12.10
2009,06,22,03,19,12.00
2009,06,22,03,20,12.00
2009,06,22,03,21,11.90
2009,06,22,03,22,11.90
2009,06,22,03,23,11.90
2009,06,22,03,24,11.90
2009,06,22,03,25,11.90
2009,06,22,03,26,11.90
2009,06,22,03,27,11.90
2009,06,22,03,28,11.90
2009,06,22,03,29,11.90
2009,06,22,03,30,11.90
2009,06,22,03,31,11.90
2009,06,22,03,32,11.90
2009,06,22,03,33,11.90
2009,06,22,03,34,11.90
2009,06,22,03,35,11.90
2009,06,22,03,36,11.90
2009,06,22,03,37,11.90
2009,06,22,03,38,11.90
2009,06,22,03,39,11.90
2009,06,22,03,40,11.90
2009,06,22,03,41,11.90
2009,06,22,03,42,11.90
2009,06,22,03,43,11.90
2009,06,22,03,44,12.00
2009,06,22,03,45,12.00
2009,06,22,03,46,12.00
2009,06,22,03,47,12.00
2009,06,22,03,48,12.00
2009,06,22,03,49,12.00
2009,06,22,03,50,12.00
2009,06,22,03,51,12.00
2009,06,22,03,52,12.00
2009,06,22,03,53,12.00
2009,06,22,03,54,12.00
2009,06,22,03,55,12.00
2009,06,22,03,56,12.10
2009,06,22,03,57,12.10
2009,06,22,03,58,12.10
2009,06,22,03,59,12.10
2009,06,22,04,00,12.10
2009,06,22,04,01,12.10
2009,06,22,04,02,12.10
2009,06,22,04,03,12.10
2009,06,22,04,04,12.10
2009,06,22,04,05,12.10
2009,06,22,04,06,12.10
2009,06,22,04,07,12.00
2009,06,22,04,08,12.00
2009,06,22,04,09,11.90
2009,06,22,04,10,11.90
2009,06,22,04,11,12.00
2009,06,22,04,12,12.00
2009,06,22,04,13,12.00
2009,06,22,04,14,12.00
2009,06,22,04,15,12.00
2009,06,22,04,16,12.00
2009,06,22,04,17,12.00
2009,06,22,04,18,12.00
2009,06,22,04,19,11.90
2009,06,22,04,20,11.90
2009,06,22,04,21,11.90
2009,06,22,04,22,11.90
2009,06,22,04,23,11.90
2009,06,22,04,24,11.90
2009,06,22,04,25,11.90
2009,06,22,04,26,11.90
2009,06,22,04,27,11.90
2009,06,22,04,28,11.90
2009,06,22,04,29,11.90
2009,06,22,04,30,11.90
2009,06,22,04,31,11.90
2009,06,22,04,32,11.90
2009,06,22,04,33,11.90
2009,06,22,04,34,11.90
2009,06,22,04,35,11.90
2009,06,22,04,36,11.90
2009,06,22,04,37,11.90
2009,06,22,04,38,11.90
2009,06,22,04,39,11.90
2009,06,22,04,40,11.80
2009,06,22,04,41,11.80
2009,06,22,04,42,11.80
2009,06,22,04,43,11.80
2009,06,22,04,44,11.80
2009,06,22,04,45,11.80
2009,06,22,04,46,11.80
2009,06,22,04,47,11.70
2009,06,22,04,48,11.70
2009,06,22,04,49,11.70
2009,06,22,04,50,11.70
2009,06,22,04,51,11.60
2009,06,22,04,52,11.60
2009,06,22,04,53,11.60
2009,06,22,04,54,11.60
2009,06,22,04,55,11.60
2009,06,22,04,56,11.60
2009,06,22,04,57,11.50
2009,06,22,04,58,11.50
2009,06,22,04,59,11.50
2009,06,22,05,00,11.50
2009,06,22,05,01,11.50
2009,06,22,05,02,11.50
2009,06,22,05,03,11.50
2009,06,22,05,04,11.50
2009,06,22,05,05,11.50
2009,06,22,05,06,11.50
2009,06,22,05,07,11.50
2009,06,22,05,08,11.50
2009,06,22,05,09,11.50
2009,06,22,05,10,11.50
2009,06,22,05,11,11.50
2009,06,22,05,12,11.50
2009,06,22,05,13,11.50
2009,06,22,05,14,11.40
2009,06,22,05,15,11.40
2009,06,22,05,16,11.40
2009,06,22,05,17,11.40
2009,06,22,05,18,11.40
2009,06,22,05,19,11.30
2009,06,22,05,20,11.30
2009,06,22,05,21,11.30
2009,06,22,05,22,11.30
2009,06,22,05,23,11.40
2009,06,22,05,24,11.50
2009,06,22,05,25,11.50
2009,06,22,05,26,11.50
2009,06,22,05,27,11.50
2009,06,22,05,28,11.40
2009,06,22,05,29,11.40
2009,06,22,05,30,11.40
2009,06,22,05,31,11.30
2009,06,22,05,32,11.30
2009,06,22,05,33,11.30
2009,06,22,05,34,11.30
2009,06,22,05,35,11.30
2009,06,22,05,36,11.30
2009,06,22,05,37,11.30
2009,06,22,05,38,11.30
2009,06,22,05,39,11.30
2009,06,22,05,40,11.30
2009,06,22,05,41,11.30
2009,06,22,05,42,11.30
2009,06,22,05,43,11.40
2009,06,22,05,44,11.40
2009,06,22,05,45,11.40
2009,06,22,05,46,11.50
2009,06,22,05,47,11.50
2009,06,22,05,48,11.60
2009,06,22,05,49,11.60
2009,06,22,05,50,11.60
2009,06,22,05,51,11.60
2009,06,22,05,52,11.70
2009,06,22,05,53,11.70
2009,06,22,05,54,11.70
2009,06,22,05,55,11.80
2009,06,22,05,56,11.80
2009,06,22,05,57,11.80
2009,06,22,05,58,11.80
2009,06,22,05,59,11.80
2009,06,22,06,00,11.80
2009,06,22,06,01,11.90
2009,06,22,06,02,11.90
2009,06,22,06,03,11.90
2009,06,22,06,04,11.90
2009,06,22,06,05,11.90
2009,06,22,06,06,11.90
2009,06,22,06,07,11.90
2009,06,22,06,08,11.90
2009,06,22,06,09,11.90
2009,06,22,06,10,11.90
2009,06,22,06,11,11.90
2009,06,22,06,12,11.90
2009,06,22,06,13,11.90
2009,06,22,06,14,11.80
2009,06,22,06,15,11.80
2009,06,22,06,16,11.80
2009,06,22,06,17,11.80
2009,06,22,06,18,11.80
2009,06,22,06,19,11.80
2009,06,22,06,20,11.70
2009,06,22,06,21,11.70
2009,06,22,06,22,11.70
2009,06,22,06,23,11.70
2009,06,22,06,24,11.60
2009,06,22,06,25,11.60
2009,06,22,06,26,11.60
2009,06,22,06,27,11.50
2009,06,22,06,28,11.50
2009,06,22,06,29,11.50
2009,06,22,06,30,11.40
2009,06,22,06,31,11.40
2009,06,22,06,32,11.40
2009,06,22,06,33,11.40
2009,06,22,06,34,11.40
2009,06,22,06,35,11.40
2009,06,22,06,36,11.30
2009,06,22,06,37,11.40
2009,06,22,06,38,11.40
2009,06,22,06,39,11.40
2009,06,22,06,40,11.40
2009,06,22,06,41,11.40
2009,06,22,06,42,11.50
2009,06,22,06,43,11.50
2009,06,22,06,44,11.60
2009,06,22,06,45,11.70
2009,06,22,06,46,11.70
2009,06,22,06,47,11.80
2009,06,22,06,48,11.80
2009,06,22,06,49,11.80
2009,06,22,06,50,11.90
2009,06,22,06,51,11.90
2009,06,22,06,52,12.00
2009,06,22,06,53,12.00
2009,06,22,06,54,12.10
2009,06,22,06,55,12.10
2009,06,22,06,56,12.10
2009,06,22,06,57,12.20
2009,06,22,06,58,12.20
2009,06,22,06,59,12.20
2009,06,22,07,00,12.30
2009,06,22,07,01,12.30
2009,06,22,07,02,12.30
2009,06,22,07,03,12.30
2009,06,22,07,04,12.40
2009,06,22,07,05,12.40
2009,06,22,07,06,12.50
2009,06,22,07,07,12.50
2009,06,22,07,08,12.60
2009,06,22,07,09,12.60
2009,06,22,07,10,12.70
2009,06,22,07,11,12.70
2009,06,22,07,12,12.70
2009,06,22,07,13,12.80
2009,06,22,07,14,12.80
2009,06,22,07,15,12.80
2009,06,22,07,16,12.90
2009,06,22,07,17,12.90
2009,06,22,07,18,12.90
2009,06,22,07,19,13.00
2009,06,22,07,20,13.00
2009,06,22,07,21,13.00
2009,06,22,07,22,13.00
2009,06,22,07,23,13.00
2009,06,22,07,24,13.10
2009,06,22,07,25,13.10
2009,06,22,07,26,13.10
2009,06,22,07,27,13.10
2009,06,22,07,28,13.20
2009,06,22,07,29,13.20
2009,06,22,07,30,13.20
2009,06,22,07,31,13.20
2009,06,22,07,32,13.30
2009,06,22,07,33,13.30
2009,06,22,07,34,13.40
2009,06,22,07,35,13.40
2009,06,22,07,36,13.50
2009,06,22,07,37,13.60
2009,06,22,07,38,13.60
2009,06,22,07,39,13.70
2009,06,22,07,40,13.70
2009,06,22,07,41,13.70
2009,06,22,07,42,13.80
2009,06,22,07,43,13.80
2009,06,22,07,44,13.80
2009,06,22,07,45,13.90
2009,06,22,07,46,13.90
2009,06,22,07,47,13.90
2009,06,22,07,48,13.90
2009,06,22,07,49,13.90
2009,06,22,07,50,14.00
2009,06,22,07,51,14.00
2009,06,22,07,52,14.00
2009,06,22,07,53,14.00
2009,06,22,07,54,14.00
2009,06,22,07,55,14.00
2009,06,22,07,56,14.00
2009,06,22,07,57,14.00
2009,06,22,07,58,14.00
2009,06,22,07,59,14.00
2009,06,22,08,00,14.10
2009,06,22,08,01,14.10
2009,06,22,08,02,14.20
2009,06,22,08,03,14.20
2009,06,22,08,04,14.20
2009,06,22,08,05,14.30
2009,06,22,08,06,14.30
2009,06,22,08,07,14.40
2009,06,22,08,08,14.40
2009,06,22,08,09,14.30
2009,06,22,08,10,14.30
2009,06,22,08,11,14.40
2009,06,22,08,12,14.40
2009,06,22,08,13,14.40
2009,06,22,08,14,14.50
2009,06,22,08,15,14.50
2009,06,22,08,16,14.50
2009,06,22,08,17,14.60
2009,06,22,08,18,14.60
2009,06,22,08,19,14.50
2009,06,22,08,20,14.50
2009,06,22,08,21,14.50
2009,06,22,08,22,14.50
2009,06,22,08,23,14.60
2009,06,22,08,24,14.60
2009,06,22,08,25,14.70
2009,06,22,08,26,14.80
2009,06,22,08,27,14.80
2009,06,22,08,28,14.80
2009,06,22,08,29,14.80
2009,06,22,08,30,14.70
2009,06,22,08,31,14.70
2009,06,22,08,32,14.70
2009,06,22,08,33,14.60
2009,06,22,08,34,14.50
2009,06,22,08,35,14.40
2009,06,22,08,36,14.30
2009,06,22,08,37,14.30
2009,06,22,08,38,14.20
2009,06,22,08,39,14.20
2009,06,22,08,40,14.20
2009,06,22,08,41,14.20
2009,06,22,08,42,14.20
2009,06,22,08,43,14.20
2009,06,22,08,44,14.20
2009,06,22,08,45,14.20
2009,06,22,08,46,14.30
2009,06,22,08,47,14.30
2009,06,22,08,48,14.30
2009,06,22,08,49,14.30
2009,06,22,08,50,14.30
2009,06,22,08,51,14.30
2009,06,22,08,52,14.30
2009,06,22,08,53,14.30
2009,06,22,08,54,14.20
2009,06,22,08,55,14.20
2009,06,22,08,56,14.20
2009,06,22,08,57,14.20
2009,06,22,08,58,14.20
2009,06,22,08,59,14.20
2009,06,22,09,00,14.20
2009,06,22,09,01,14.20
2009,06,22,09,02,14.20
2009,06,22,09,03,14.30
2009,06,22,09,04,14.30
2009,06,22,09,05,14.40
2009,06,22,09,06,14.40
2009,06,22,09,07,14.50
2009,06,22,09,08,14.50
2009,06,22,09,09,14.50
2009,06,22,09,10,14.50
2009,06,22,09,11,14.50
2009,06,22,09,12,14.40
2009,06,22,09,13,14.40
2009,06,22,09,14,14.30
2009,06,22,09,15,14.30
2009,06,22,09,16,14.30
2009,06,22,09,17,14.30
2009,06,22,09,18,14.20
2009,06,22,09,19,14.20
2009,06,22,09,20,14.20
2009,06,22,09,21,14.30
2009,06,22,09,22,14.30
2009,06,22,09,23,14.40
2009,06,22,09,24,14.40
2009,06,22,09,25,14.50
2009,06,22,09,26,14.50
2009,06,22,09,27,14.60
2009,06,22,09,28,14.70
2009,06,22,09,29,14.80
2009,06,22,09,30,14.90
2009,06,22,09,31,14.90
2009,06,22,09,32,14.90
2009,06,22,09,33,14.90
2009,06,22,09,34,14.90
2009,06,22,09,35,14.90
2009,06,22,09,36,14.90
2009,06,22,09,37,14.80
2009,06,22,09,38,14.80
2009,06,22,09,39,14.80
2009,06,22,09,40,14.90
2009,06,22,09,41,15.00
2009,06,22,09,42,15.00
2009,06,22,09,43,15.00
2009,06,22,09,44,15.00
2009,06,22,09,45,15.00
2009,06,22,09,46,15.00
2009,06,22,09,47,15.00
2009,06,22,09,48,15.00
2009,06,22,09,49,15.00
2009,06,22,09,50,15.00
2009,06,22,09,51,15.00
2009,06,22,09,52,15.00
2009,06,22,09,53,15.00
2009,06,22,09,54,15.00
2009,06,22,09,55,15.00
2009,06,22,09,56,15.00
2009,06,22,09,57,14.90
2009,06,22,09,58,14.80
2009,06,22,09,59,14.80
2009,06,22,10,00,14.80
2009,06,22,10,01,14.80
2009,06,22,10,02,14.80
2009,06,22,10,03,14.70
2009,06,22,10,04,14.70
2009,06,22,10,05,14.70
2009,06,22,10,06,14.70
2009,06,22,10,07,14.80
2009,06,22,10,08,14.70
2009,06,22,10,09,14.70
2009,06,22,10,10,14.70
2009,06,22,10,11,14.80
2009,06,22,10,12,14.80
2009,06,22,10,13,14.90
2009,06,22,10,14,14.90
2009,06,22,10,15,15.00
2009,06,22,10,16,15.00
2009,06,22,10,17,15.00
2009,06,22,10,18,15.00
2009,06,22,10,19,15.00
2009,06,22,10,20,15.00
2009,06,22,10,21,15.00
2009,06,22,10,22,15.00
2009,06,22,10,23,15.10
2009,06,22,10,24,15.20
2009,06,22,10,25,15.30
2009,06,22,10,26,15.30
2009,06,22,10,27,15.40
2009,06,22,10,28,15.40
2009,06,22,10,29,15.40
2009,06,22,10,30,15.50
2009,06,22,10,31,15.50
2009,06,22,10,32,15.50
2009,06,22,10,33,15.50
2009,06,22,10,34,15.50
2009,06,22,10,35,15.60
2009,06,22,10,36,15.60
2009,06,22,10,37,15.70
2009,06,22,10,38,15.70
2009,06,22,10,39,15.70
2009,06,22,10,40,15.60
2009,06,22,10,41,15.50
2009,06,22,10,42,15.30
2009,06,22,10,43,15.20
2009,06,22,10,44,15.10
2009,06,22,10,45,15.10
2009,06,22,10,46,15.00
2009,06,22,10,47,15.00
2009,06,22,10,48,15.00
2009,06,22,10,49,15.00
2009,06,22,10,50,15.00
2009,06,22,10,51,15.00
2009,06,22,10,52,15.00
2009,06,22,10,53,15.00
2009,06,22,10,54,15.20
2009,06,22,10,55,15.40
2009,06,22,10,56,15.60
2009,06,22,10,57,15.80
2009,06,22,10,58,15.80
2009,06,22,10,59,15.80
2009,06,22,11,00,15.80
2009,06,22,11,01,15.70
2009,06,22,11,02,15.80
2009,06,22,11,03,15.80
2009,06,22,11,04,15.70
2009,06,22,11,05,15.60
2009,06,22,11,06,15.50
2009,06,22,11,07,15.50
2009,06,22,11,08,15.60
2009,06,22,11,09,15.60
2009,06,22,11,10,15.60
2009,06,22,11,11,15.60
2009,06,22,11,12,15.70
2009,06,22,11,13,15.60
2009,06,22,11,14,15.60
2009,06,22,11,15,15.60
2009,06,22,11,16,15.60
2009,06,22,11,17,15.60
2009,06,22,11,18,15.50
2009,06,22,11,19,15.40
2009,06,22,11,20,15.30
2009,06,22,11,21,15.40
2009,06,22,11,22,15.40
2009,06,22,11,23,15.40
2009,06,22,11,24,15.40
2009,06,22,11,25,15.50
2009,06,22,11,26,15.60
2009,06,22,11,27,15.60
2009,06,22,11,28,15.60
2009,06,22,11,29,15.50
2009,06,22,11,30,15.40
2009,06,22,11,31,15.20
2009,06,22,11,32,15.30
2009,06,22,11,33,15.50
2009,06,22,11,34,15.50
2009,06,22,11,35,15.50
2009,06,22,11,36,15.40
2009,06,22,11,37,15.40
2009,06,22,11,38,15.40
2009,06,22,11,39,15.30
2009,06,22,11,40,15.20
2009,06,22,11,41,15.20
2009,06,22,11,42,15.30
2009,06,22,11,43,15.40
2009,06,22,11,44,15.50
2009,06,22,11,45,15.60
2009,06,22,11,46,15.60
2009,06,22,11,47,15.60
2009,06,22,11,48,15.70
2009,06,22,11,49,15.60
2009,06,22,11,50,15.60
2009,06,22,11,51,15.70
2009,06,22,11,52,15.80
2009,06,22,11,53,15.80
2009,06,22,11,54,15.90
2009,06,22,11,55,15.90
2009,06,22,11,56,15.90
2009,06,22,11,57,15.80
2009,06,22,11,58,15.70
2009,06,22,11,59,15.70
2009,06,22,12,00,15.60
2009,06,22,12,01,15.60
2009,06,22,12,02,15.60
2009,06,22,12,03,15.80
2009,06,22,12,04,15.90
2009,06,22,12,05,15.80
2009,06,22,12,06,15.80
2009,06,22,12,07,15.80
2009,06,22,12,08,15.80
2009,06,22,12,09,15.80
2009,06,22,12,10,15.80
2009,06,22,12,11,15.70
2009,06,22,12,12,15.60
2009,06,22,12,13,15.60
2009,06,22,12,14,15.50
2009,06,22,12,15,15.40
2009,06,22,12,16,15.30
2009,06,22,12,17,15.50
2009,06,22,12,18,15.60
2009,06,22,12,19,15.70
2009,06,22,12,20,15.70
2009,06,22,12,21,15.70
2009,06,22,12,22,15.80
2009,06,22,12,23,15.80
2009,06,22,12,24,15.80
2009,06,22,12,25,15.80
2009,06,22,12,26,15.90
2009,06,22,12,27,16.10
2009,06,22,12,28,16.20
2009,06,22,12,29,16.10
2009,06,22,12,30,16.00
2009,06,22,12,31,15.90
2009,06,22,12,32,15.80
2009,06,22,12,33,15.80
2009,06,22,12,34,15.80
2009,06,22,12,35,15.80
2009,06,22,12,36,15.70
2009,06,22,12,37,15.80
2009,06,22,12,38,15.80
2009,06,22,12,39,15.80
2009,06,22,12,40,15.70
2009,06,22,12,41,15.60
2009,06,22,12,42,15.60
2009,06,22,12,43,15.60
2009,06,22,12,44,15.70
2009,06,22,12,45,15.80
2009,06,22,12,46,15.80
2009,06,22,12,47,15.90
2009,06,22,12,48,16.00
2009,06,22,12,49,16.00
2009,06,22,12,50,15.90
2009,06,22,12,51,15.90
2009,06,22,12,52,15.90
2009,06,22,12,53,15.80
2009,06,22,12,54,15.90
2009,06,22,12,55,15.90
2009,06,22,12,56,15.90
2009,06,22,12,57,15.90
2009,06,22,12,58,15.90
2009,06,22,12,59,16.00
2009,06,22,13,00,16.20
2009,06,22,13,01,16.20
2009,06,22,13,02,16.30
2009,06,22,13,03,16.30
2009,06,22,13,04,16.30
2009,06,22,13,05,16.40
2009,06,22,13,06,16.30
2009,06,22,13,07,16.30
2009,06,22,13,08,16.30
2009,06,22,13,09,16.40
2009,06,22,13,10,16.40
2009,06,22,13,11,16.40
2009,06,22,13,12,16.30
2009,06,22,13,13,16.10
2009,06,22,13,14,16.10
2009,06,22,13,15,16.00
2009,06,22,13,16,15.90
2009,06,22,13,17,15.90
2009,06,22,13,18,16.00
2009,06,22,13,19,16.10
2009,06,22,13,20,16.20
2009,06,22,13,21,16.20
2009,06,22,13,22,16.20
2009,06,22,13,23,16.30
2009,06,22,13,24,16.20
2009,06,22,13,25,16.20
2009,06,22,13,26,16.20
2009,06,22,13,27,16.20
2009,06,22,13,28,16.30
2009,06,22,13,29,16.30
2009,06,22,13,30,16.30
2009,06,22,13,31,16.30
2009,06,22,13,32,16.30
2009,06,22,13,33,16.30
2009,06,22,13,34,16.40
2009,06,22,13,35,16.50
2009,06,22,13,36,16.60
2009,06,22,13,37,16.60
2009,06,22,13,38,16.50
2009,06,22,13,39,16.50
2009,06,22,13,40,16.50
2009,06,22,13,41,16.40
2009,06,22,13,42,16.40
2009,06,22,13,43,16.30
2009,06,22,13,44,16.30
2009,06,22,13,45,16.30
2009,06,22,13,46,16.40
2009,06,22,13,47,16.60
2009,06,22,13,48,16.70
2009,06,22,13,49,16.70
2009,06,22,13,50,16.70
2009,06,22,13,51,16.70
2009,06,22,13,52,16.70
2009,06,22,13,53,16.80
2009,06,22,13,54,16.80
2009,06,22,13,55,16.80
2009,06,22,13,56,16.70
2009,06,22,13,57,16.60
2009,06,22,13,58,16.50
2009,06,22,13,59,16.50
2009,06,22,14,00,16.60
2009,06,22,14,01,16.60
2009,06,22,14,02,16.50
2009,06,22,14,03,16.40
2009,06,22,14,04,16.40
2009,06,22,14,05,16.40
2009,06,22,14,06,16.40
2009,06,22,14,07,16.50
2009,06,22,14,08,16.60
2009,06,22,14,09,16.70
2009,06,22,14,10,16.70
2009,06,22,14,11,16.70
2009,06,22,14,12,16.80
2009,06,22,14,13,16.80
2009,06,22,14,14,16.70
2009,06,22,14,15,16.70
2009,06,22,14,16,16.70
2009,06,22,14,17,16.70
2009,06,22,14,18,16.70
2009,06,22,14,19,16.70
2009,06,22,14,20,16.80
2009,06,22,14,21,16.90
2009,06,22,14,22,17.00
2009,06,22,14,23,17.00
2009,06,22,14,24,17.10
2009,06,22,14,25,17.10
2009,06,22,14,26,17.10
2009,06,22,14,27,17.10
2009,06,22,14,28,17.00
2009,06,22,14,29,17.00
2009,06,22,14,30,17.00
2009,06,22,14,31,16.90
2009,06,22,14,32,16.90
2009,06,22,14,33,16.90
2009,06,22,14,34,17.20
2009,06,22,14,35,17.30
2009,06,22,14,36,17.40
2009,06,22,14,37,17.40
2009,06,22,14,38,17.50
2009,06,22,14,39,17.60
2009,06,22,14,40,17.70
2009,06,22,14,41,17.80
2009,06,22,14,42,17.90
2009,06,22,14,43,18.00
2009,06,22,14,44,18.00
2009,06,22,14,45,18.10
2009,06,22,14,46,18.20
2009,06,22,14,47,18.20
2009,06,22,14,48,18.20
2009,06,22,14,49,18.20
2009,06,22,14,50,18.10
2009,06,22,14,51,18.00
2009,06,22,14,52,17.90
2009,06,22,14,53,17.80
2009,06,22,14,54,17.90
2009,06,22,14,55,18.10
2009,06,22,14,56,18.00
2009,06,22,14,57,18.00
2009,06,22,14,58,18.10
2009,06,22,14,59,18.00
2009,06,22,15,00,18.20
2009,06,22,15,01,18.40
2009,06,22,15,02,18.50
2009,06,22,15,03,18.40
2009,06,22,15,04,18.40
2009,06,22,15,05,18.30
2009,06,22,15,06,18.40
2009,06,22,15,07,18.40
2009,06,22,15,08,18.40
2009,06,22,15,09,18.30
2009,06,22,15,10,18.30
2009,06,22,15,11,18.40
2009,06,22,15,12,18.40
2009,06,22,15,13,18.30
2009,06,22,15,14,18.40
2009,06,22,15,15,18.40
2009,06,22,15,16,18.30
2009,06,22,15,17,18.30
2009,06,22,15,18,18.20
2009,06,22,15,19,18.10
2009,06,22,15,20,18.20
2009,06,22,15,21,18.30
2009,06,22,15,22,18.50
2009,06,22,15,23,18.70
2009,06,22,15,24,18.80
2009,06,22,15,25,18.90
2009,06,22,15,26,18.80
2009,06,22,15,27,18.70
2009,06,22,15,28,18.60
2009,06,22,15,29,18.50
2009,06,22,15,30,18.40
2009,06,22,15,31,18.40
2009,06,22,15,32,18.30
2009,06,22,15,33,18.30
2009,06,22,15,34,18.30
2009,06,22,15,35,18.30
2009,06,22,15,36,18.40
2009,06,22,15,37,18.40
2009,06,22,15,38,18.30
2009,06,22,15,39,18.20
2009,06,22,15,40,18.10
2009,06,22,15,41,18.20
2009,06,22,15,42,18.20
2009,06,22,15,43,18.30
2009,06,22,15,44,18.30
2009,06,22,15,45,18.20
2009,06,22,15,46,18.30
2009,06,22,15,47,18.50
2009,06,22,15,48,18.50
2009,06,22,15,49,18.40
2009,06,22,15,50,18.50
2009,06,22,15,51,18.50
2009,06,22,15,52,18.50
2009,06,22,15,53,18.50
2009,06,22,15,54,18.60
2009,06,22,15,55,18.70
2009,06,22,15,56,18.80
2009,06,22,15,57,18.90
2009,06,22,15,58,18.90
2009,06,22,15,59,18.90
2009,06,22,16,00,18.80
2009,06,22,16,01,18.70
2009,06,22,16,02,18.60
2009,06,22,16,03,18.50
2009,06,22,16,04,18.50
2009,06,22,16,05,18.40
2009,06,22,16,06,18.40
2009,06,22,16,07,18.50
2009,06,22,16,08,18.60
2009,06,22,16,09,18.70
2009,06,22,16,10,18.70
2009,06,22,16,11,18.70
2009,06,22,16,12,18.70
2009,06,22,16,13,18.80
2009,06,22,16,14,18.90
2009,06,22,16,15,18.90
2009,06,22,16,16,18.90
2009,06,22,16,17,18.80
2009,06,22,16,18,18.80
2009,06,22,16,19,18.70
2009,06,22,16,20,18.70
2009,06,22,16,21,18.70
2009,06,22,16,22,18.80
2009,06,22,16,23,18.90
2009,06,22,16,24,19.20
2009,06,22,16,25,19.20
2009,06,22,16,26,19.20
2009,06,22,16,27,19.10
2009,06,22,16,28,19.10
2009,06,22,16,29,19.00
2009,06,22,16,30,18.70
2009,06,22,16,31,18.50
2009,06,22,16,32,18.40
2009,06,22,16,33,18.40
2009,06,22,16,34,18.50
2009,06,22,16,35,18.60
2009,06,22,16,36,18.70
2009,06,22,16,37,18.70
2009,06,22,16,38,18.80
2009,06,22,16,39,18.80
2009,06,22,16,40,18.90
2009,06,22,16,41,18.80
2009,06,22,16,42,18.90
2009,06,22,16,43,18.90
2009,06,22,16,44,18.80
2009,06,22,16,45,18.60
2009,06,22,16,46,18.50
2009,06,22,16,47,18.40
2009,06,22,16,48,18.40
2009,06,22,16,49,18.30
2009,06,22,16,50,18.30
2009,06,22,16,51,18.20
2009,06,22,16,52,18.20
2009,06,22,16,53,18.10
2009,06,22,16,54,18.10
2009,06,22,16,55,18.10
2009,06,22,16,56,18.10
2009,06,22,16,57,18.10
2009,06,22,16,58,18.10
2009,06,22,16,59,18.00
2009,06,22,17,00,18.00
2009,06,22,17,01,18.00
2009,06,22,17,02,18.00
2009,06,22,17,03,18.00
2009,06,22,17,04,18.00
2009,06,22,17,05,18.00
2009,06,22,17,06,18.10
2009,06,22,17,07,18.20
2009,06,22,17,08,18.20
2009,06,22,17,09,18.10
2009,06,22,17,10,18.10
2009,06,22,17,11,18.10
2009,06,22,17,12,18.10
2009,06,22,17,13,18.20
2009,06,22,17,14,18.20
2009,06,22,17,15,18.20
2009,06,22,17,16,18.10
2009,06,22,17,17,18.00
2009,06,22,17,18,18.00
2009,06,22,17,19,17.90